Time,TemperatureF,DewpointF,PressureIn,WindDirection,WindDirectionDegrees,WindSpeedMPH,WindSpeedGustMPH,Humidity,HourlyPrecipIn,Conditions,Clouds,dailyrainin,SoftwareType,DateUTC
2013-04-04 00:02:00,38.0,30.0,29.97,NNW,332,0.0,0.0,72,0.00,,,0.03,,2013-04-04 06:02:00,
2013-04-04 00:12:00,38.0,30.0,29.97,NNW,332,0.0,0.0,72,0.00,,,0.03,,2013-04-04 06:12:00,
2013-04-04 00:21:00,38.0,30.0,29.96,NNW,332,0.0,1.0,73,0.00,,,0.03,,2013-04-04 06:21:00,
2013-04-04 00:32:00,38.0,30.0,29.96,NNW,332,0.0,1.0,73,0.00,,,0.03,,2013-04-04 06:32:00,
2013-04-04 00:42:00,38.0,30.0,29.96,NNW,332,0.0,1.0,73,0.00,,,0.03,,2013-04-04 06:42:00,
2013-04-04 00:52:00,37.0,30.0,29.95,NNW,332,0.0,1.0,75,0.00,,,0.03,,2013-04-04 06:52:00,
2013-04-04 01:01:00,37.0,30.0,29.95,NNW,332,0.0,1.0,75,0.00,,,0.03,,2013-04-04 07:01:00,
2013-04-04 01:12:00,37.0,30.0,29.95,NNW,332,0.0,1.0,75,0.00,,,0.03,,2013-04-04 07:12:00,
2013-04-04 01:21:00,36.0,29.0,29.96,NNE,33,0.0,1.0,76,0.00,,,0.03,,2013-04-04 07:21:00,
2013-04-04 01:31:00,36.0,29.0,29.96,NNE,33,0.0,1.0,76,0.00,,,0.03,,2013-04-04 07:31:00,
2013-04-04 01:43:00,36.0,29.0,29.96,NNE,33,0.0,1.0,76,0.00,,,0.03,,2013-04-04 07:43:00,
2013-04-04 01:52:00,36.0,29.0,29.96,NNE,33,0.0,1.0,76,0.00,,,0.03,,2013-04-04 07:52:00,
2013-04-04 02:01:00,36.0,29.0,29.96,NNE,33,0.0,1.0,76,0.00,,,0.03,,2013-04-04 08:01:00,
2013-04-04 02:12:00,36.0,29.0,29.96,NNE,33,0.0,1.0,76,0.00,,,0.03,,2013-04-04 08:12:00,
2013-04-04 02:22:00,36.0,29.0,29.96,NNE,33,0.0,1.0,77,0.00,,,0.03,,2013-04-04 08:22:00,
2013-04-04 02:32:00,36.0,29.0,29.96,NNE,33,0.0,1.0,77,0.00,,,0.03,,2013-04-04 08:32:00,
2013-04-04 02:43:00,36.0,29.0,29.96,NNE,33,0.0,1.0,77,0.00,,,0.03,,2013-04-04 08:43:00,
2013-04-04 02:52:00,36.0,30.0,29.93,NNE,33,0.0,1.0,79,0.00,,,0.03,,2013-04-04 08:52:00,
2013-04-04 03:02:00,36.0,30.0,29.93,NNE,33,0.0,1.0,79,0.00,,,0.03,,2013-04-04 09:02:00,
2013-04-04 03:12:00,36.0,30.0,29.93,NNE,33,0.0,1.0,79,0.00,,,0.03,,2013-04-04 09:12:00,
2013-04-04 03:22:00,36.0,30.0,29.93,NNE,33,0.0,1.0,79,0.00,,,0.03,,2013-04-04 09:22:00,
2013-04-04 03:32:00,36.0,30.0,29.93,NNE,33,0.0,1.0,79,0.00,,,0.03,,2013-04-04 09:32:00,
2013-04-04 03:43:00,36.0,30.0,29.93,NNE,33,0.0,1.0,79,0.00,,,0.03,,2013-04-04 09:43:00,
2013-04-04 03:53:00,35.0,30.0,29.94,NNE,33,0.0,0.0,81,0.00,,,0.03,,2013-04-04 09:53:00,
2013-04-04 04:03:00,35.0,30.0,29.94,NNE,33,0.0,0.0,81,0.00,,,0.03,,2013-04-04 10:03:00,
2013-04-04 04:12:00,35.0,30.0,29.94,NNE,33,0.0,0.0,81,0.00,,,0.03,,2013-04-04 10:12:00,
2013-04-04 04:23:00,35.0,30.0,29.94,NNE,33,0.0,0.0,81,0.00,,,0.03,,2013-04-04 10:23:00,
2013-04-04 04:32:00,35.0,30.0,29.94,NNE,33,0.0,0.0,81,0.00,,,0.03,,2013-04-04 10:32:00,
2013-04-04 04:43:00,35.0,30.0,29.94,NNE,33,0.0,0.0,81,0.00,,,0.03,,2013-04-04 10:43:00,
2013-04-04 04:53:00,34.0,29.0,29.94,NNE,33,0.0,0.0,83,0.00,,,0.03,,2013-04-04 10:53:00,
2013-04-04 05:02:00,34.0,29.0,29.94,NNE,33,0.0,0.0,83,0.00,,,0.03,,2013-04-04 11:02:00,
2013-04-04 05:12:00,34.0,29.0,29.94,NNE,33,0.0,0.0,83,0.00,,,0.03,,2013-04-04 11:12:00,
2013-04-04 05:21:00,33.0,29.0,29.92,NNE,33,0.0,0.0,84,0.00,,,0.03,,2013-04-04 11:21:00,
2013-04-04 05:32:00,33.0,29.0,29.92,NNE,33,0.0,0.0,84,0.00,,,0.03,,2013-04-04 11:32:00,
2013-04-04 05:43:00,33.0,29.0,29.92,NNE,33,0.0,0.0,84,0.00,,,0.03,,2013-04-04 11:43:00,
2013-04-04 05:53:00,33.0,29.0,29.92,NNE,33,0.0,0.0,86,0.00,,,0.03,,2013-04-04 11:53:00,
2013-04-04 06:02:00,33.0,29.0,29.92,NNE,33,0.0,0.0,86,0.00,,,0.03,,2013-04-04 12:02:00,
2013-04-04 06:12:00,33.0,29.0,29.92,NNE,33,0.0,0.0,86,0.00,,,0.03,,2013-04-04 12:12:00,
2013-04-04 06:22:00,33.0,29.0,29.92,NNE,33,0.0,0.0,85,0.00,,,0.03,,2013-04-04 12:22:00,
2013-04-04 06:32:00,33.0,29.0,29.92,NNE,33,0.0,0.0,85,0.00,,,0.03,,2013-04-04 12:32:00,
2013-04-04 06:43:00,33.0,29.0,29.92,NNE,33,0.0,0.0,85,0.00,,,0.03,,2013-04-04 12:43:00,
2013-04-04 06:52:00,33.0,29.0,29.91,NNE,33,0.0,0.0,86,0.00,,,0.03,,2013-04-04 12:52:00,
2013-04-04 07:02:00,33.0,29.0,29.91,NNE,33,0.0,0.0,86,0.00,,,0.03,,2013-04-04 13:02:00,
2013-04-04 07:12:00,33.0,29.0,29.91,NNE,33,0.0,0.0,86,0.00,,,0.03,,2013-04-04 13:12:00,
2013-04-04 07:22:00,33.0,29.0,29.91,NNE,33,0.0,0.0,86,0.00,,,0.03,,2013-04-04 13:22:00,
2013-04-04 07:32:00,33.0,29.0,29.91,NNE,33,0.0,0.0,86,0.00,,,0.03,,2013-04-04 13:32:00,
2013-04-04 07:43:00,33.0,29.0,29.91,NNE,33,0.0,0.0,86,0.00,,,0.03,,2013-04-04 13:43:00,
2013-04-04 07:52:00,32.0,29.0,29.90,NNE,33,0.0,0.0,87,0.00,,,0.03,,2013-04-04 13:52:00,
2013-04-04 08:02:00,32.0,29.0,29.90,NNE,33,0.0,0.0,87,0.00,,,0.03,,2013-04-04 14:02:00,
2013-04-04 08:12:00,32.0,29.0,29.90,NNE,33,0.0,0.0,87,0.00,,,0.03,,2013-04-04 14:12:00,
2013-04-04 08:22:00,33.0,30.0,29.89,NNE,33,0.0,1.0,88,0.00,,,0.03,,2013-04-04 14:22:00,
2013-04-04 08:32:00,33.0,30.0,29.89,NNE,33,0.0,1.0,88,0.00,,,0.03,,2013-04-04 14:32:00,
2013-04-04 08:43:00,33.0,30.0,29.89,NNE,33,0.0,1.0,88,0.00,,,0.03,,2013-04-04 14:43:00,
2013-04-04 08:52:00,35.0,31.0,29.88,NNE,33,0.0,1.0,85,0.00,,,0.03,,2013-04-04 14:52:00,
2013-04-04 09:01:00,35.0,31.0,29.88,NNE,33,0.0,1.0,85,0.00,,,0.03,,2013-04-04 15:01:00,
2013-04-04 09:12:00,35.0,31.0,29.88,NNE,33,0.0,1.0,85,0.00,,,0.03,,2013-04-04 15:12:00,
2013-04-04 09:22:00,42.0,34.0,29.88,NNE,33,0.0,0.0,74,0.00,,,0.03,,2013-04-04 15:22:00,
2013-04-04 09:53:00,46.0,33.0,29.86,ENE,57,0.0,2.0,61,0.00,,,0.03,,2013-04-04 15:53:00,
2013-04-04 10:23:00,47.0,35.0,29.86,South,182,0.0,2.0,62,0.00,,,0.03,,2013-04-04 16:23:00,
2013-04-04 10:53:00,50.0,34.0,29.85,East,84,1.0,3.0,54,0.00,,,0.03,,2013-04-04 16:53:00,
2013-04-04 11:22:00,50.0,35.0,29.85,East,79,0.0,2.0,56,0.00,,,0.03,,2013-04-04 17:22:00,
2013-04-04 11:32:00,50.0,35.0,29.85,East,79,0.0,2.0,56,0.00,,,0.03,,2013-04-04 17:32:00,
2013-04-04 11:52:00,50.0,34.0,29.84,SE,136,0.0,4.0,55,0.00,,,0.03,,2013-04-04 17:52:00,
2013-04-04 12:02:00,50.0,34.0,29.84,SE,136,0.0,4.0,55,0.00,,,0.03,,2013-04-04 18:02:00,
2013-04-04 12:12:00,50.0,34.0,29.84,SE,136,0.0,4.0,55,0.00,,,0.03,,2013-04-04 18:12:00,
2013-04-04 12:22:00,52.0,36.0,29.83,NNE,28,1.0,4.0,55,0.00,,,0.03,,2013-04-04 18:22:00,
2013-04-04 12:32:00,52.0,36.0,29.83,NNE,28,1.0,4.0,55,0.00,,,0.03,,2013-04-04 18:32:00,
2013-04-04 12:43:00,52.0,36.0,29.83,NNE,28,1.0,4.0,55,0.00,,,0.03,,2013-04-04 18:43:00,
2013-04-04 12:52:00,54.0,34.0,29.80,North,11,1.0,5.0,47,0.00,,,0.03,,2013-04-04 18:52:00,
2013-04-04 13:02:00,54.0,34.0,29.80,North,11,1.0,5.0,47,0.00,,,0.03,,2013-04-04 19:02:00,
2013-04-04 13:12:00,54.0,34.0,29.80,North,11,1.0,5.0,47,0.00,,,0.03,,2013-04-04 19:12:00,
2013-04-04 13:21:00,54.0,35.0,29.79,NNE,13,0.0,4.0,48,0.00,,,0.03,,2013-04-04 19:21:00,
2013-04-04 13:31:00,54.0,35.0,29.79,NNE,13,0.0,4.0,48,0.00,,,0.03,,2013-04-04 19:31:00,
2013-04-04 13:43:00,54.0,35.0,29.79,NNE,13,0.0,4.0,48,0.00,,,0.03,,2013-04-04 19:43:00,
2013-04-04 13:52:00,55.0,36.0,29.77,North,360,1.0,3.0,48,0.00,,,0.03,,2013-04-04 19:52:00,
2013-04-04 14:02:00,55.0,36.0,29.77,North,360,1.0,3.0,48,0.00,,,0.03,,2013-04-04 20:02:00,
2013-04-04 14:12:00,55.0,36.0,29.77,North,360,1.0,3.0,48,0.00,,,0.03,,2013-04-04 20:12:00,
2013-04-04 14:22:00,57.0,35.0,29.78,NNW,340,0.0,4.0,43,0.00,,,0.03,,2013-04-04 20:22:00,
2013-04-04 14:32:00,57.0,35.0,29.78,NNW,340,0.0,4.0,43,0.00,,,0.03,,2013-04-04 20:32:00,
2013-04-04 14:42:00,57.0,35.0,29.78,NNW,340,0.0,4.0,43,0.00,,,0.03,,2013-04-04 20:42:00,
2013-04-04 14:52:00,57.0,35.0,29.77,North,350,1.0,5.0,44,0.00,,,0.00,,2013-04-04 20:52:00,
2013-04-04 15:02:00,57.0,35.0,29.77,North,350,1.0,5.0,44,0.00,,,0.00,,2013-04-04 21:02:00,
2013-04-04 15:12:00,57.0,35.0,29.77,North,350,1.0,5.0,44,0.00,,,0.00,,2013-04-04 21:12:00,
2013-04-04 15:22:00,56.0,35.0,29.75,NNE,15,2.0,4.0,45,0.00,,,0.00,,2013-04-04 21:22:00,
2013-04-04 15:32:00,56.0,35.0,29.75,NNE,15,2.0,4.0,45,0.00,,,0.00,,2013-04-04 21:32:00,
2013-04-04 15:43:00,56.0,35.0,29.75,NNE,15,2.0,4.0,45,0.00,,,0.00,,2013-04-04 21:43:00,
2013-04-04 15:53:00,56.0,36.0,29.72,NE,43,1.0,5.0,46,0.00,,,0.00,,2013-04-04 21:53:00,
2013-04-04 16:02:00,56.0,36.0,29.72,NE,43,1.0,5.0,46,0.00,,,0.00,,2013-04-04 22:02:00,
2013-04-04 16:12:00,56.0,36.0,29.72,NE,43,1.0,5.0,46,0.00,,,0.00,,2013-04-04 22:12:00,
2013-04-04 16:22:00,57.0,35.0,29.73,NNW,336,2.0,5.0,43,0.00,,,0.00,,2013-04-04 22:22:00,
2013-04-04 16:32:00,57.0,35.0,29.73,NNW,336,2.0,5.0,43,0.00,,,0.00,,2013-04-04 22:32:00,
2013-04-04 16:43:00,57.0,35.0,29.73,NNW,336,2.0,5.0,43,0.00,,,0.00,,2013-04-04 22:43:00,
2013-04-04 16:53:00,57.0,34.0,29.71,NW,309,0.0,6.0,41,0.00,,,0.00,,2013-04-04 22:53:00,
2013-04-04 17:02:00,57.0,34.0,29.71,NW,309,0.0,6.0,41,0.00,,,0.00,,2013-04-04 23:02:00,
2013-04-04 17:12:00,57.0,34.0,29.71,NW,309,0.0,6.0,41,0.00,,,0.00,,2013-04-04 23:12:00,
2013-04-04 17:22:00,56.0,36.0,29.72,NE,55,1.0,5.0,47,0.00,,,0.00,,2013-04-04 23:22:00,
2013-04-04 17:31:00,56.0,36.0,29.72,NE,55,1.0,5.0,47,0.00,,,0.00,,2013-04-04 23:31:00,
2013-04-04 17:42:00,56.0,36.0,29.72,NE,55,1.0,5.0,47,0.00,,,0.00,,2013-04-04 23:42:00,
2013-04-04 17:52:00,51.0,43.0,29.73,WNW,291,0.0,2.0,73,0.02,,,0.02,,2013-04-04 23:52:00,
2013-04-04 18:01:00,51.0,43.0,29.73,WNW,291,0.0,2.0,73,0.02,,,0.02,,2013-04-05 00:01:00,
2013-04-04 18:12:00,51.0,43.0,29.73,WNW,291,0.0,2.0,73,0.02,,,0.02,,2013-04-05 00:12:00,
2013-04-04 18:22:00,49.0,44.0,29.70,NW,305,0.0,2.0,82,0.02,,,0.02,,2013-04-05 00:22:00,
2013-04-04 18:32:00,49.0,44.0,29.70,NW,305,0.0,2.0,82,0.02,,,0.02,,2013-04-05 00:32:00,
2013-04-04 18:42:00,49.0,44.0,29.70,NW,305,0.0,2.0,82,0.02,,,0.02,,2013-04-05 00:42:00,
2013-04-04 18:52:00,48.0,44.0,29.71,NW,305,0.0,0.0,86,0.00,,,0.00,,2013-04-05 00:52:00,
2013-04-04 19:02:00,48.0,44.0,29.71,NW,305,0.0,0.0,86,0.00,,,0.00,,2013-04-05 01:02:00,
2013-04-04 19:12:00,48.0,44.0,29.71,NW,305,0.0,0.0,86,0.00,,,0.00,,2013-04-05 01:12:00,
2013-04-04 19:22:00,47.0,44.0,29.69,NW,306,0.0,3.0,89,0.01,,,0.01,,2013-04-05 01:22:00,
2013-04-04 19:32:00,47.0,44.0,29.69,NW,306,0.0,3.0,89,0.01,,,0.01,,2013-04-05 01:32:00,
2013-04-04 19:42:00,47.0,44.0,29.69,NW,306,0.0,3.0,89,0.01,,,0.01,,2013-04-05 01:42:00,
2013-04-04 19:53:00,47.0,43.0,29.68,NNW,327,0.0,2.0,86,0.01,,,0.01,,2013-04-05 01:53:00,
2013-04-04 20:02:00,47.0,43.0,29.68,NNW,327,0.0,2.0,86,0.01,,,0.01,,2013-04-05 02:02:00,
2013-04-04 20:12:00,47.0,43.0,29.68,NNW,327,0.0,2.0,86,0.01,,,0.01,,2013-04-05 02:12:00,
2013-04-04 20:22:00,46.0,43.0,29.69,NNW,327,0.0,0.0,89,0.00,,,0.01,,2013-04-05 02:22:00,
2013-04-04 20:31:00,46.0,43.0,29.69,NNW,327,0.0,0.0,89,0.00,,,0.01,,2013-04-05 02:31:00,
2013-04-04 20:42:00,46.0,43.0,29.69,NNW,327,0.0,0.0,89,0.00,,,0.01,,2013-04-05 02:42:00,
2013-04-04 20:52:00,46.0,43.0,29.65,NNW,327,1.0,3.0,89,0.01,,,0.02,,2013-04-05 02:52:00,
2013-04-04 21:01:00,46.0,43.0,29.65,NNW,327,1.0,3.0,89,0.01,,,0.02,,2013-04-05 03:01:00,
2013-04-04 21:12:00,46.0,43.0,29.65,NNW,327,1.0,3.0,89,0.01,,,0.02,,2013-04-05 03:12:00,
2013-04-04 21:22:00,46.0,43.0,29.64,West,271,2.0,3.0,88,0.01,,,0.02,,2013-04-05 03:22:00,
2013-04-04 21:32:00,46.0,43.0,29.64,West,271,2.0,3.0,88,0.01,,,0.02,,2013-04-05 03:32:00,
2013-04-04 21:43:00,46.0,43.0,29.64,West,271,2.0,3.0,88,0.01,,,0.02,,2013-04-05 03:43:00,
2013-04-04 21:53:00,46.0,42.0,29.65,NNW,331,0.0,5.0,87,0.00,,,0.02,,2013-04-05 03:53:00,
2013-04-04 22:02:00,46.0,42.0,29.65,NNW,331,0.0,5.0,87,0.00,,,0.02,,2013-04-05 04:02:00,
2013-04-04 22:12:00,46.0,42.0,29.65,NNW,331,0.0,5.0,87,0.00,,,0.02,,2013-04-05 04:12:00,
2013-04-04 22:22:00,47.0,41.0,29.64,NNW,344,4.0,9.0,80,0.00,,,0.02,,2013-04-05 04:22:00,
2013-04-04 22:32:00,47.0,41.0,29.64,NNW,344,4.0,9.0,80,0.00,,,0.02,,2013-04-05 04:32:00,
2013-04-04 22:42:00,47.0,41.0,29.64,NNW,344,4.0,9.0,80,0.00,,,0.02,,2013-04-05 04:42:00,
2013-04-04 22:52:00,49.0,41.0,29.64,ENE,70,1.0,7.0,75,0.00,,,0.02,,2013-04-05 04:52:00,
2013-04-04 23:02:00,49.0,41.0,29.64,ENE,70,1.0,7.0,75,0.00,,,0.02,,2013-04-05 05:02:00,
2013-04-04 23:12:00,49.0,41.0,29.64,ENE,70,1.0,7.0,75,0.00,,,0.02,,2013-04-05 05:12:00,
2013-04-04 23:21:00,49.0,41.0,29.67,NE,44,3.0,10.0,74,0.00,,,0.02,,2013-04-05 05:21:00,
2013-04-04 23:31:00,49.0,41.0,29.67,NE,44,3.0,10.0,74,0.00,,,0.02,,2013-04-05 05:31:00,
2013-04-04 23:42:00,49.0,41.0,29.67,NE,44,3.0,10.0,74,0.00,,,0.02,,2013-04-05 05:42:00,
2013-04-04 23:52:00,48.0,40.0,29.66,NW,305,1.0,14.0,74,0.00,,,0.02,,2013-04-05 05:52:00,